Location: Marcé
(47.5801°N, 0.3280°W)
Time: 17:35:53
(UTC+02:00)

ACS3 Solar Sail - Pass Details

Date: 21 June 2024
Orbit: 992 x 1023 km, 97.4° (Epoch: 12 July)

Event Time Altitude Azimuth Distance (km) Brightness Sun altitude
Exits shadow 22:40:51 - 142° (SE) 3,085 6.7 -5.7°
Reaches altitude 10° 22:41:44 10° 139° (SE) 2,764 6.5 -5.8°
Maximum altitude 22:47:38 47° 68° (ENE) 1,307 5.4 -6.5°
Drops below altitude 10° 22:53:31 10° 358° (N) 2,769 8.0 -7.2°
Sets 22:56:05 0° 352° (N) 3,721 8.9 -7.5°
